This is the latest recevied weather packets stored in our database for station/object K4CRS-13. If no packets are shown the sender has not sent any weather packets the latest 10 day(s).
| Time | Temp. | Humidity | Pressure | Rain* | Wind** | Luminosity | Snow |
|---|---|---|---|---|---|---|---|
| 1787919279 | 20.56° C | 99% | 1053 hPa | 0 mm | - | 45 W/m² | - |
| 1787918974 | 20.56° C | 99% | 1052.8 hPa | 0 mm | - | 41 W/m² | - |
| 1787918669 | 20.56° C | 99% | 1052.9 hPa | 0 mm | - | 32 W/m² | - |
| 1787918367 | 20.56° C | 99% | 1052.9 hPa | 0 mm | - | 28 W/m² | - |
| 1787918062 | 20° C | 99% | 1052.6 hPa | 0 mm | - | 25 W/m² | - |
| 1787917757 | 20° C | 99% | 1052.9 hPa | 0 mm | - | 20 W/m² | - |
| 1787917453 | 20° C | 99% | 1052.5 hPa | 0 mm | - | 16 W/m² | - |
| 1787917148 | 20° C | 99% | 1052.4 hPa | 0 mm | - | 12 W/m² | - |
| 1787916843 | 20° C | 99% | 1052.3 hPa | 0 mm | - | 8 W/m² | - |
| 1787916542 | 20° C | 99% | 1052.3 hPa | 0 mm | - | 5 W/m² | - |
| 1787916237 | 20° C | 99% | 1052.1 hPa | 0 mm | - | 3 W/m² | - |
| 1787915932 | 20° C | 99% | 1052.2 hPa | 0 mm | - | 2 W/m² | - |
| 1787915629 | 20° C | 99% | 1052.1 hPa | 0 mm | - | 1 W/m² | - |
| 1787915328 | 20° C | 99% | 1052.1 hPa | 0 mm | - | 0 W/m² | - |
| 1787915023 | 20° C | 99% | 1051.9 hPa | 0 mm | - | 0 W/m² | - |
| 1787914721 | 20° C | 99% | 1052.1 hPa | 0 mm | - | 0 W/m² | - |
| 1787914416 | 20° C | 99% | 1052.1 hPa | 0 mm | - | 0 W/m² | - |
| 1787914111 | 20° C | 99% | 1052 hPa | 0 mm | - | 0 W/m² | - |
| 1787913811 | 20° C | 99% | 1051.9 hPa | 0 mm | - | 0 W/m² | - |
| 1787913506 | 20° C | 99% | 1051.7 hPa | 0 mm | - | 0 W/m² | - |
| 1787913205 | 20° C | 99% | 1052 hPa | 0 mm | - | 0 W/m² | - |
| 1787912904 | 19.44° C | 99% | 1051.9 hPa | 0 mm | - | 0 W/m² | - |
| 1787912604 | 19.44° C | 99% | 1051.9 hPa | 0 mm | - | 0 W/m² | - |
| 1787912298 | 18.89° C | 99% | 1051.7 hPa | 0 mm | - | 0 W/m² | - |
| 1787911997 | 18.33° C | 99% | 1051.5 hPa | 0 mm | - | 0 W/m² | - |
* Rain latest hour (hover to see other rain measurements)
** Current wind speed in m/s (hover to see current wind gust speed)